Vorticity
nan nan nan nan nan nan nan nan nan nan nan nan nan nan nan nan nan nan nan nan nan nan nan nan nan nan nan nan nan nan nan nan nan nan nan nan nan nan nan nan nan nan nan nan nan nan nan nan nan nan nan nan nan nan nan nan nan nan nan nan nan nan nan nan nan nan nan nan nan
nan 9 9 9 9 9 10 10 11 10 10 10 10 9 9 8 9 9 8 8 9 10 9 10 11 12 12 10 9 9 9 9 8 8 8 7 7 7 6 7 8 9 8 7 6 6 6 6 7 8 8 8 9 9 9 8 9 9 8 8 9 9 8 8 8 8 8 7 nan
nan 9 9 9 10 10 9 10 11 10 9 10 11 10 10 9 9 9 9 9 10 10 9 11 12 11 11 9 7 9 9 9 8 7 7 7 7 7 7 8 9 8 8 7 6 7 7 7 7 8 8 9 9 9 8 9 10 9 8 7 8 9 8 8 9 8 8 8 nan
nan 9 9 11 11 9 7 9 11 9 7 8 9 10 10 10 10 10 10 10 9 9 9 11 11 10 9 9 9 9 10 10 9 7 6 7 7 7 7 8 8 8 8 8 8 7 7 7 7 8 9 9 8 7 7 9 10 9 9 8 9 9 9 9 10 10 9 9 nan
nan 9 9 11 10 7 7 11 11 8 6 8 9 9 9 9 10 10 11 10 9 9 11 11 10 10 10 11 11 9 9 9 7 7 8 8 7 7 7 8 8 7 7 8 8 7 7 6 7 8 9 8 7 7 8 9 9 9 9 9 9 9 9 9 10 10 10 10 nan
nan 9 10 11 10 8 9 12 12 8 7 9 11 10 9 9 11 11 11 9 9 10 11 9 9 10 11 11 10 9 8 7 7 8 9 8 7 7 8 8 8 7 8 8 8 7 6 5 7 8 8 8 8 9 9 9 9 9 9 9 9 10 10 9 9 10 10 9 nan
nan 9 10 10 10 9 10 12 10 8 8 10 12 10 8 10 12 12 10 8 8 9 9 8 10 10 10 9 9 8 8 8 8 9 9 8 7 7 7 8 8 8 8 8 7 6 5 6 7 8 8 8 8 9 9 10 10 8 8 8 9 9 10 9 9 10 9 9 nan
nan 10 10 10 9 10 11 10 7 7 8 11 12 10 9 10 10 9 7 7 8 8 8 10 11 10 9 9 9 8 8 8 8 8 9 9 8 7 7 8 8 8 7 6 7 6 5 6 8 8 7 7 8 9 9 9 10 9 8 8 8 9 9 9 10 10 10 9 nan
nan 10 11 10 10 11 10 8 7 7 8 11 11 10 9 9 8 6 4 5 8 8 8 10 12 10 9 9 8 7 7 8 8 8 8 8 8 6 6 7 8 7 6 7 8 7 6 6 8 8 8 8 9 9 9 9 9 9 8 8 8 8 9 10 10 10 10 9 nan
nan 9 9 9 10 10 9 8 7 8 9 10 10 9 8 8 7 4 4 6 10 9 8 9 11 10 9 8 7 7 7 8 9 8 8 8 8 6 5 6 8 6 6 6 8 8 6 6 7 8 8 9 11 10 9 9 9 8 7 7 8 9 9 9 10 10 9 9 nan
nan 8 8 9 10 9 8 6 6 7 9 10 10 8 8 7 5 5 6 10 11 10 7 8 10 9 7 6 7 7 7 8 9 10 9 8 7 7 6 7 7 7 6 6 6 7 6 7 8 8 7 8 10 10 9 9 9 8 7 7 9 9 9 9 9 9 10 10 nan
nan 7 8 10 10 8 7 5 6 8 10 11 9 7 7 6 7 6 7 10 11 8 6 8 10 8 5 6 8 8 8 9 10 10 10 8 7 7 7 7 7 8 7 6 5 5 7 8 9 9 6 6 7 9 9 9 7 7 7 7 8 8 8 8 8 9 10 10 nan
nan 8 8 10 10 7 6 4 6 9 11 10 7 6 7 8 8 8 9 8 6 5 7 9 9 8 6 8 9 9 9 10 10 9 9 9 8 8 7 7 8 7 7 6 5 6 8 9 10 9 6 5 5 7 9 8 7 6 7 7 7 7 8 8 9 9 9 9 nan
nan 8 8 9 8 5 5 5 6 9 12 10 7 6 7 9 9 8 9 7 5 5 7 8 7 8 10 11 10 10 9 10 10 9 9 8 8 8 7 8 8 7 6 7 8 8 8 8 8 8 7 6 5 6 7 7 7 7 8 7 6 7 7 9 9 9 8 8 nan
nan 8 9 8 6 4 5 5 6 10 12 9 7 7 7 9 9 8 9 8 6 6 8 8 7 8 11 12 11 10 9 9 10 9 8 8 8 8 7 8 8 7 7 8 8 8 8 8 7 7 8 7 6 6 6 7 8 8 8 8 7 7 8 9 9 9 8 7 nan
nan 8 8 7 5 4 5 4 6 10 11 9 8 8 8 9 9 9 10 8 6 8 10 8 6 7 9 12 13 11 10 9 9 8 8 8 8 8 7 8 8 8 8 8 7 6 7 8 8 8 8 8 8 7 7 7 7 8 8 7 7 7 9 10 10 9 8 7 nan
nan 8 8 7 6 4 4 4 6 10 11 10 9 8 7 8 9 10 10 8 7 9 10 8 6 7 8 9 10 12 11 9 8 8 8 8 8 8 8 8 9 9 9 8 7 6 5 6 8 9 10 9 8 8 8 7 7 8 7 7 7 7 9 10 10 9 9 8 nan
nan 7 8 7 6 5 5 5 6 9 10 9 8 6 7 9 9 8 9 9 10 11 9 7 5 7 8 7 7 10 11 10 8 8 8 9 9 9 8 8 8 9 9 8 8 8 7 6 6 7 8 9 9 9 9 9 8 9 8 8 8 8 8 9 9 9 9 8 nan
nan 8 8 8 7 6 5 5 6 8 8 7 7 8 9 10 10 8 7 8 11 11 9 7 5 7 9 7 6 7 8 10 10 8 7 8 9 9 9 8 8 9 9 8 9 9 8 8 7 7 6 7 8 9 10 9 9 10 10 9 9 8 8 8 8 8 9 9 nan
nan 8 8 7 7 6 6 6 6 6 6 8 10 10 9 9 9 9 7 7 8 10 10 8 7 7 8 8 7 6 5 9 12 9 8 8 9 9 9 9 9 9 9 8 9 9 9 9 8 8 8 8 7 7 7 8 9 9 9 10 10 9 9 9 9 8 8 8 nan
nan 8 7 7 7 7 7 6 6 7 8 10 11 9 8 8 8 9 8 7 8 9 9 9 8 8 7 8 7 5 4 8 12 11 9 10 10 9 9 10 9 9 9 9 9 10 10 9 8 8 9 9 8 7 7 7 8 8 7 8 10 10 9 10 10 9 9 8 nan
nan 8 8 8 8 8 8 7 8 8 9 9 9 9 8 8 8 8 8 8 8 9 10 10 10 9 8 8 7 5 4 7 10 10 10 10 11 11 10 11 11 9 9 9 10 10 10 9 9 8 8 9 9 9 8 8 7 7 6 6 7 8 8 9 10 10 10 10 nan
nan 8 8 9 10 9 8 8 9 9 9 9 9 9 9 8 7 8 8 8 8 8 8 10 11 12 11 9 9 7 6 6 7 7 8 9 10 11 11 11 12 10 8 9 10 10 10 10 10 9 8 9 10 10 9 9 8 7 7 6 6 6 7 8 9 10 10 10 nan
nan 7 6 9 12 10 8 9 9 9 9 9 9 9 9 8 8 9 10 10 10 9 6 7 10 12 12 11 11 10 9 8 7 6 7 7 9 10 10 11 11 10 8 10 11 9 5 7 10 10 10 10 11 12 11 10 9 9 8 7 5 5 6 6 8 9 10 10 nan
nan 7 7 9 11 9 8 9 9 8 8 9 10 9 9 9 9 10 10 10 9 9 8 6 8 10 11 11 12 12 12 11 10 9 8 7 8 9 9 9 10 10 10 15 17 11 2 -1 3 7 10 11 11 12 11 11 11 10 10 9 6 5 5 6 7 8 10 11 nan
nan 8 8 8 9 9 9 9 8 8 7 9 10 10 9 10 11 11 11 10 9 9 10 8 7 8 10 11 11 10 11 12 13 12 10 9 8 8 7 7 8 9 12 17 19 14 7 -0 -2 0 6 11 12 10 9 10 11 10 10 9 7 6 6 6 6 7 8 10 nan
nan 9 8 9 9 9 8 8 8 8 9 11 12 11 10 11 11 12 10 9 9 9 10 9 9 10 10 11 10 9 8 10 12 13 12 11 10 8 6 6 7 8 13 18 18 15 11 6 2 0 2 8 11 10 9 9 9 9 8 7 7 7 8 8 8 7 6 7 nan
nan 9 8 9 9 8 7 8 9 10 10 10 11 10 12 13 12 11 9 8 9 9 9 9 10 11 10 10 11 10 8 8 9 11 12 11 11 10 7 6 7 10 14 16 15 14 13 10 8 6 2 3 6 9 9 9 8 7 7 7 8 9 9 10 10 10 8 6 nan
nan 9 9 9 8 7 8 9 9 9 9 10 11 12 13 13 12 10 9 9 9 9 8 9 11 11 11 10 10 10 10 9 9 10 11 10 10 10 9 8 9 12 15 16 14 14 14 14 12 11 7 -1 -2 5 8 9 8 7 7 8 10 10 10 9 9 10 9 8 nan
nan 10 10 9 8 7 8 8 9 9 9 11 13 13 12 11 11 10 10 9 8 8 8 11 13 13 12 10 9 9 10 10 12 12 11 10 9 9 9 8 9 12 17 17 15 15 16 16 15 13 9 -2 -7 -0 6 8 8 8 7 9 11 11 10 10 9 8 7 7 nan
nan 10 10 9 8 8 8 9 10 11 11 12 13 11 11 11 10 9 9 7 7 9 12 14 13 11 11 10 10 10 9 9 10 12 13 12 9 9 9 9 9 11 17 18 16 17 17 17 15 12 9 -3 -10 -3 4 9 8 7 8 10 12 11 10 10 11 10 8 6 nan
nan 11 10 10 9 8 9 11 12 12 12 12 11 11 10 9 8 8 8 8 9 10 11 10 9 8 7 8 9 10 10 10 10 10 11 12 11 10 10 11 11 13 18 20 17 17 17 16 14 12 9 -4 -10 -2 5 8 9 8 10 11 12 11 9 8 11 12 10 7 nan
nan 11 11 10 9 9 10 12 13 13 12 12 11 10 8 6 7 9 9 9 10 9 8 8 7 7 7 8 9 10 11 12 12 11 11 11 11 10 10 10 13 17 20 21 18 17 16 15 13 11 9 -4 -11 -1 6 8 7 8 10 11 12 13 11 9 9 11 12 9 nan
nan 11 11 10 9 10 11 12 12 12 12 11 10 8 7 7 8 9 9 9 9 10 11 11 9 9 9 10 10 11 11 12 13 12 11 11 12 11 10 8 12 18 22 21 18 16 15 14 12 11 9 -4 -10 1 8 7 6 8 9 9 10 11 12 11 10 11 11 10 nan
nan 10 10 10 10 11 11 11 11 11 10 9 8 7 7 8 9 9 9 10 10 11 11 11 10 10 10 10 11 11 11 11 11 11 12 11 12 12 10 8 11 17 20 20 17 15 14 12 12 10 4 -6 -6 4 9 8 7 9 9 9 8 9 9 10 10 11 11 10 nan
nan 10 10 10 11 11 10 10 9 9 9 8 7 7 7 9 9 10 10 10 10 10 9 8 7 8 8 10 11 11 11 11 10 10 11 11 10 11 11 10 12 18 21 19 16 14 13 12 12 9 1 -8 -4 5 9 9 10 12 11 9 9 9 9 9 9 10 10 10 nan
nan 11 11 10 10 9 9 8 7 8 8 7 7 8 8 9 9 10 9 9 9 8 6 6 6 7 9 11 11 11 11 11 11 10 10 10 9 9 9 10 13 18 22 21 16 14 13 13 12 7 -4 -8 -1 6 8 9 11 13 13 11 10 9 9 10 11 11 10 10 nan
nan 12 11 10 9 8 8 8 8 8 7 6 7 9 9 9 9 10 9 9 7 6 5 6 8 9 11 11 11 12 12 11 11 11 11 10 9 9 9 10 12 16 22 23 19 16 14 14 12 4 -8 -8 3 7 8 10 11 12 12 11 10 8 7 8 10 11 11 12 nan
nan 12 11 9 8 8 8 9 8 6 6 7 9 10 9 9 10 11 10 8 7 6 7 9 10 11 11 11 10 10 11 11 12 11 11 10 9 9 9 10 11 14 20 24 21 18 15 15 12 5 -9 -8 4 9 10 11 12 10 9 9 8 7 6 6 8 10 11 13 nan
nan 11 10 8 8 9 9 9 6 6 7 9 9 8 8 9 10 11 10 7 7 8 10 11 11 10 10 10 10 9 9 10 11 12 11 10 10 10 10 11 11 13 19 25 24 20 17 15 12 5 -10 -6 7 10 12 12 12 10 8 8 8 7 7 6 7 8 9 12 nan
nan nan nan nan nan nan nan nan nan nan nan nan nan nan nan nan nan nan nan nan nan nan nan nan nan nan nan nan nan nan nan nan nan nan nan nan nan nan nan nan nan nan nan nan nan nan nan nan nan nan nan nan nan nan nan nan nan nan nan nan nan nan nan nan nan nan nan nan nan
CAPE
nan nan nan nan nan nan nan nan nan nan nan nan nan nan nan nan nan nan nan nan nan nan nan nan nan nan nan nan nan nan nan nan nan nan nan nan nan nan nan nan nan nan nan nan nan nan nan nan nan nan nan nan nan nan nan nan nan nan nan nan nan nan nan nan nan nan nan nan nan
nan nan nan nan nan nan nan nan nan nan nan nan nan nan nan nan nan nan nan nan nan nan nan nan nan nan nan nan nan nan nan nan nan nan nan nan nan nan nan nan nan nan nan nan nan nan nan nan nan nan nan nan nan nan nan nan nan nan nan nan nan nan nan nan nan nan nan nan nan
nan nan nan nan nan nan nan nan nan nan nan nan nan nan nan nan nan nan nan nan nan nan nan nan nan nan nan nan nan nan nan nan nan nan nan nan nan nan nan nan nan nan nan nan nan nan nan nan nan nan nan nan nan nan nan nan nan nan nan nan nan nan nan nan nan nan nan nan nan
nan nan nan nan nan nan nan nan nan nan nan nan nan nan nan nan nan nan nan nan nan nan nan nan nan nan nan nan nan nan nan nan nan nan nan nan nan nan nan nan nan nan nan nan nan nan nan nan nan nan nan nan nan nan nan nan nan nan nan nan nan nan nan nan nan nan nan nan nan
nan nan nan nan nan nan nan nan nan nan nan nan nan nan nan nan nan nan nan nan nan nan nan nan nan nan nan nan nan nan nan nan nan nan nan nan nan nan nan nan nan nan nan nan nan nan nan nan nan nan nan nan nan nan nan nan nan nan nan nan nan nan nan nan nan nan nan nan nan
nan nan nan nan nan nan nan nan nan nan nan nan nan nan nan nan nan nan nan nan nan nan nan nan nan nan nan nan nan nan nan nan nan nan nan nan nan nan nan nan nan nan nan nan nan nan nan nan nan nan nan nan nan nan nan nan nan nan nan nan nan nan nan nan nan nan nan nan nan
nan nan nan nan nan nan nan nan nan nan nan nan nan nan nan nan nan nan nan nan nan nan nan nan nan nan nan nan nan nan nan nan nan nan nan nan nan nan nan nan nan nan nan nan nan nan nan nan nan nan nan nan nan nan nan nan nan nan nan nan nan nan nan nan nan nan nan nan nan
nan nan nan nan nan nan nan nan nan nan nan nan nan nan nan nan nan nan nan nan nan nan nan nan nan nan nan nan nan nan nan nan nan nan nan nan nan nan nan nan nan nan nan nan nan nan nan nan nan nan nan nan nan nan nan nan nan nan nan nan nan nan nan nan nan nan nan nan nan
nan nan nan nan nan nan nan nan nan nan nan nan nan nan nan nan nan nan nan nan nan nan nan nan nan nan nan nan nan nan nan nan nan nan nan nan nan nan nan nan nan nan nan nan nan nan nan nan nan nan nan nan nan nan nan nan nan nan nan nan nan nan nan nan nan nan nan nan nan
nan nan nan nan nan nan nan nan nan nan nan nan nan nan nan nan nan nan nan nan nan nan nan nan nan nan nan nan nan nan nan nan nan nan nan nan nan nan nan nan nan nan nan nan nan nan nan nan nan nan nan nan nan nan nan nan nan nan nan nan nan nan nan nan nan nan nan nan nan
nan nan nan nan nan nan nan nan nan nan nan nan nan nan nan nan nan nan nan nan nan nan nan nan nan nan nan nan nan nan nan nan nan nan nan nan nan nan nan nan nan nan nan nan nan nan nan nan nan nan nan nan nan nan nan nan nan nan nan nan nan nan nan nan nan nan nan nan nan
nan nan nan nan nan nan nan nan nan nan nan nan nan nan nan nan nan nan nan nan nan nan nan nan nan nan nan nan nan nan nan nan nan nan nan nan nan nan nan nan nan nan nan nan nan nan nan nan nan nan nan nan nan nan nan nan nan nan nan nan nan nan nan nan nan nan nan nan nan
nan nan nan nan nan nan nan nan nan nan nan nan nan nan nan nan nan nan nan nan nan nan nan nan nan nan nan nan nan nan nan nan nan nan nan nan nan nan nan nan nan nan nan nan nan nan nan nan nan nan nan nan nan nan nan nan nan nan nan nan nan nan nan nan nan nan nan nan nan
nan nan nan nan nan nan nan nan nan nan nan nan nan nan nan nan nan nan nan nan nan nan nan nan nan nan nan nan nan nan nan nan nan nan nan nan nan nan nan nan nan nan nan nan nan nan nan nan nan nan nan nan nan nan nan nan nan nan nan nan nan nan nan nan nan nan nan nan nan
nan nan nan nan nan nan nan nan nan nan nan nan nan nan nan nan nan nan nan nan nan nan nan nan nan nan nan nan nan nan nan nan nan nan nan nan nan nan nan nan nan nan nan nan nan nan nan nan nan nan nan nan nan nan nan nan nan nan nan nan nan nan nan nan nan nan nan nan nan
nan nan nan nan nan nan nan nan nan nan nan nan nan nan nan nan nan nan nan nan nan nan nan nan nan nan nan nan nan nan nan nan nan nan nan nan nan nan nan nan nan nan nan nan nan nan nan nan nan nan nan nan nan nan nan nan nan nan nan nan nan nan nan nan nan nan nan nan nan
nan nan nan nan nan nan nan nan nan nan nan nan nan nan nan nan nan nan nan nan nan nan nan nan nan nan nan nan nan nan nan nan nan nan nan nan nan nan nan nan nan nan nan nan nan nan nan nan nan nan nan nan nan nan nan nan nan nan nan nan nan nan nan nan nan nan nan nan nan
nan nan nan nan nan nan nan nan nan nan nan nan nan nan nan nan nan nan nan nan nan nan nan nan nan nan nan nan nan nan nan nan nan nan nan nan nan nan nan nan nan nan nan nan nan nan nan nan nan nan nan nan nan nan nan nan nan nan nan nan nan nan nan nan nan nan nan nan nan
nan nan nan nan nan nan nan nan nan nan nan nan nan nan nan nan nan nan nan nan nan nan nan nan nan nan nan nan nan nan nan nan nan nan nan nan nan nan nan nan nan nan nan nan nan nan nan nan nan nan nan nan nan nan nan nan nan nan nan nan nan nan nan nan nan nan nan nan nan
nan nan nan nan nan nan nan nan nan nan nan nan nan nan nan nan nan nan nan nan nan nan nan nan nan nan nan nan nan nan nan nan nan nan nan nan nan nan nan nan nan nan nan nan nan nan nan nan nan nan nan nan nan nan nan nan nan nan nan nan nan nan nan nan nan nan nan nan nan
nan nan nan nan nan nan nan nan nan nan nan nan nan nan nan nan nan nan nan nan nan nan nan nan nan nan nan nan nan nan nan nan nan nan nan nan nan nan nan nan nan nan nan nan nan nan nan nan nan nan nan nan nan nan nan nan nan nan nan nan nan nan nan nan nan nan nan nan nan
nan nan nan nan nan nan nan nan nan nan nan nan nan nan nan nan nan nan nan nan nan nan nan nan nan nan nan nan nan nan nan nan nan nan nan nan nan nan nan nan nan nan nan nan nan nan nan nan nan nan nan nan nan nan nan nan nan nan nan nan nan nan nan nan nan nan nan nan nan
nan nan nan nan nan nan nan nan nan nan nan nan nan nan nan nan nan nan nan nan nan nan nan nan nan nan nan nan nan nan nan nan nan nan nan nan nan nan nan nan nan nan nan nan nan nan nan nan nan nan nan nan nan nan nan nan nan nan nan nan nan nan nan nan nan nan nan nan nan
nan nan nan nan nan nan nan nan nan nan nan nan nan nan nan nan nan nan nan nan nan nan nan nan nan nan nan nan nan nan nan nan nan nan nan nan nan nan nan nan nan nan nan nan nan nan nan nan nan nan nan nan nan nan nan nan nan nan nan nan nan nan nan nan nan nan nan nan nan
nan nan nan nan nan nan nan nan nan nan nan nan nan nan nan nan nan nan nan nan nan nan nan nan nan nan nan nan nan nan nan nan nan nan nan nan nan nan nan nan nan nan nan nan nan nan nan nan nan nan nan nan nan nan nan nan nan nan nan nan nan nan nan nan nan nan nan nan nan
nan nan nan nan nan nan nan nan nan nan nan nan nan nan nan nan nan nan nan nan nan nan nan nan nan nan nan nan nan nan nan nan nan nan nan nan nan nan nan nan nan nan nan nan nan nan nan nan nan nan nan nan nan nan nan nan nan nan nan nan nan nan nan nan nan nan nan nan nan
nan nan nan nan nan nan nan nan nan nan nan nan nan nan nan nan nan nan nan nan nan nan nan nan nan nan nan nan nan nan nan nan nan nan nan nan nan nan nan nan nan nan nan nan nan nan nan nan nan nan nan nan nan nan nan nan nan nan nan nan nan nan nan nan nan nan nan nan nan
nan nan nan nan nan nan nan nan nan nan nan nan nan nan nan nan nan nan nan nan nan nan nan nan nan nan nan nan nan nan nan nan nan nan nan nan nan nan nan nan nan nan nan nan nan nan nan nan nan nan nan nan nan nan nan nan nan nan nan nan nan nan nan nan nan nan nan nan nan
nan nan nan nan nan nan nan nan nan nan nan nan nan nan nan nan nan nan nan nan nan nan nan nan nan nan nan nan nan nan nan nan nan nan nan nan nan nan nan nan nan nan nan nan nan nan nan nan nan nan nan nan nan nan nan nan nan nan nan nan nan nan nan nan nan nan nan nan nan
nan nan nan nan nan nan nan nan nan nan nan nan nan nan nan nan nan nan nan nan nan nan nan nan nan nan nan nan nan nan nan nan nan nan nan nan nan nan nan nan nan nan nan nan nan nan nan nan nan nan nan nan nan nan nan nan nan nan nan nan nan nan nan nan nan nan nan nan nan
nan nan nan nan nan nan nan nan nan nan nan nan nan nan nan nan nan nan nan nan nan nan nan nan nan nan nan nan nan nan nan nan nan nan nan nan nan nan nan nan nan nan nan nan nan nan nan nan nan nan nan nan nan nan nan nan nan nan nan nan nan nan nan nan nan nan nan nan nan
nan nan nan nan nan nan nan nan nan nan nan nan nan nan nan nan nan nan nan nan nan nan nan nan nan nan nan nan nan nan nan nan nan nan nan nan nan nan nan nan nan nan nan nan nan nan nan nan nan nan nan nan nan nan nan nan nan nan nan nan nan nan nan nan nan nan nan nan nan
nan nan nan nan nan nan nan nan nan nan nan nan nan nan nan nan nan nan nan nan nan nan nan nan nan nan nan nan nan nan nan nan nan nan nan nan nan nan nan nan nan nan nan nan nan nan nan nan nan nan nan nan nan nan nan nan nan nan nan nan nan nan nan nan nan nan nan nan nan
nan nan nan nan nan nan nan nan nan nan nan nan nan nan nan nan nan nan nan nan nan nan nan nan nan nan nan nan nan nan nan nan nan nan nan nan nan nan nan nan nan nan nan nan nan nan nan nan nan nan nan nan nan nan nan nan nan nan nan nan nan nan nan nan nan nan nan nan nan
nan nan nan nan nan nan nan nan nan nan nan nan nan nan nan nan nan nan nan nan nan nan nan nan nan nan nan nan nan nan nan nan nan nan nan nan nan nan nan nan nan nan nan nan nan nan nan nan nan nan nan nan nan nan nan nan nan nan nan nan nan nan nan nan nan nan nan nan nan
nan nan nan nan nan nan nan nan nan nan nan nan nan nan nan nan nan nan nan nan nan nan nan nan nan nan nan nan nan nan nan nan nan nan nan nan nan nan nan nan nan nan nan nan nan nan nan nan nan nan nan nan nan nan nan nan nan nan nan nan nan nan nan nan nan nan nan nan nan
nan nan nan nan nan nan nan nan nan nan nan nan nan nan nan nan nan nan nan nan nan nan nan nan nan nan nan nan nan nan nan nan nan nan nan nan nan nan nan nan nan nan nan nan nan nan nan nan nan nan nan nan nan nan nan nan nan nan nan nan nan nan nan nan nan nan nan nan nan
nan nan nan nan nan nan nan nan nan nan nan nan nan nan nan nan nan nan nan nan nan nan nan nan nan nan nan nan nan nan nan nan nan nan nan nan nan nan nan nan nan nan nan nan nan nan nan nan nan nan nan nan nan nan nan nan nan nan nan nan nan nan nan nan nan nan nan nan nan
nan nan nan nan nan nan nan nan nan nan nan nan nan nan nan nan nan nan nan nan nan nan nan nan nan nan nan nan nan nan nan nan nan nan nan nan nan nan nan nan nan nan nan nan nan nan nan nan nan nan nan nan nan nan nan nan nan nan nan nan nan nan nan nan nan nan nan nan nan
nan nan nan nan nan nan nan nan nan nan nan nan nan nan nan nan nan nan nan nan nan nan nan nan nan nan nan nan nan nan nan nan nan nan nan nan nan nan nan nan nan nan nan nan nan nan nan nan nan nan nan nan nan nan nan nan nan nan nan nan nan nan nan nan nan nan nan nan nan
nan nan nan nan nan nan nan nan nan nan nan nan nan nan nan nan nan nan nan nan nan nan nan nan nan nan nan nan nan nan nan nan nan nan nan nan nan nan nan nan nan nan nan nan nan nan nan nan nan nan nan nan nan nan nan nan nan nan nan nan nan nan nan nan nan nan nan nan nan